Location: Belbèze
(43.1324°N, 1.0258°E)
Time: 21:04:51
(UTC+00:00)

Daily predictions for brighter satellites

Satellite Brightness Start Highest point End
(mag) Time Altitude Azimuth Time Altitude Azimuth Time Altitude Azimuth
Cosmos 2322 4.2 17:12:49 10° SW 17:18:29 63° WNW 17:24:11 10° NNE
Cosmos 468 Rocket 4.3 17:14:44 10° S 17:19:43 49° ESE 17:24:41 10° NNE
USA 215 4.2 17:17:44 10° NE 17:23:37 37° NNW 17:29:31 10° W
Cosmos 2228 Rocket 3.6 17:19:27 10° SSE 17:23:41 42° E 17:27:59 10° NNE
Cosmos 2279 Rocket 4.0 17:21:56 10° N 17:28:06 63° E 17:34:12 10° SSE
Meteor 1-12 Rocket 4.4 17:23:04 10° NNW 17:28:49 83° W 17:34:38 10° S
Cosmos 841 Rocket 4.4 17:24:51 10° SSE 17:29:18 29° E 17:33:45 10° NE
Cosmos 1898 Rocket 4.1 17:25:39 10° N 17:30:27 34° ENE 17:35:16 10° SE
PSLV R/B 3.3 17:27:58 10° SSE 17:32:00 76° ENE 17:36:05 10° N
Aureole 1 Rocket 4.5 17:27:14 10° NNW 17:34:42 51° ENE 17:41:18 10° SE
Okean 1-7 3.8 17:33:43 10° SSE 17:37:26 30° E 17:41:11 10° NNE
SL-16 R/B 3.6 17:33:45 10° SE 17:37:32 19° E 17:40:54 11° ENE
Cosmos 1980 3.7 17:32:03 10° SSW 17:37:39 70° ESE 17:43:16 10° NNE
SMAP 3.7 17:36:28 10° S 17:41:03 61° WSW 17:45:41 10° NNW
Cosmos 1953 2.0 17:40:56 10° N 17:44:39 65° E 17:48:19 10° SSE
Lacrosse 5 4.1 17:42:58 10° WNW 17:47:19 29° SW 17:51:39 10° S
NOSS 0 Rocket 4.1 17:41:25 10° SSW 17:47:33 75° WNW 17:53:44 10° NNE
SKYMED 2 3.7 17:46:51 10° NNE 17:51:07 54° E 17:55:21 10° S
Cosmos 1818 4.5 17:48:01 10° NNW 17:52:42 28° NE 17:56:19 14° E
ATLAS 2AS CENTAUR R/B 3.4 17:48:08 10° NNW 17:54:10 32° NE 17:59:05 14° E
ACS3 Solar Sail 2.1 17:48:47 10° SE 17:54:51 48° ENE 18:00:56 10° N
COSMOS 2428 3.9 17:49:41 10° SW 17:55:00 40° WNW 18:00:22 10° NNE
IGS 5A 3.7 17:51:49 10° S 17:55:48 69° W 17:59:48 10° NNW
Cosmos 2369 Rocket 3.6 17:52:18 10° N 17:55:49 17° NE 17:56:55 16° ENE
Cosmos 372 Rocket 3.9 17:55:35 10° NNW 18:00:37 57° ENE 18:05:36 10° SE
Cosmos 1174 3.9 17:57:17 10° NW 18:01:05 82° WSW 18:05:43 10° SSE
BREEZE-M DEB (TANK) 4.3 17:55:33 10° W 18:04:57 47° NNW 18:07:22 20° NE
DNEPR-1 R/B 3.5 18:00:25 10° NNW 18:05:10 76° NE 18:09:23 10° SE
Cosmos 1908 Rocket 4.0 18:04:50 10° N 18:08:52 37° ENE 18:12:53 10° SE
Meteor 1-31 Rocket 2.6 18:07:47 10° SSE 18:11:15 54° ENE 18:14:45 10° N
Okean 3 4.3 18:07:41 10° SSW 18:11:38 49° W 18:15:40 10° N
Cosmos 1707 Rocket 4.3 18:08:03 10° SSW 18:12:25 57° W 18:16:48 10° N
EO 1 Delta rocket 3.7 18:10:20 10° NNE 18:15:01 76° E 18:19:44 10° S
Okean 2 4.0 18:11:34 10° SSW 18:15:26 55° W 18:19:21 10° N
CZ-2C R/B 4.3 18:22:18 17° NNE 18:22:18 17° NNE 18:23:17 10° N
Cosmos 1937 Rocket 3.4 18:15:30 10° NNW 18:20:38 65° ENE 18:25:46 10° SSE
Cosmos 2026 Rocket 4.3 18:15:01 10° SSE 18:21:01 45° E 18:27:01 10° NNE
Cosmos 1825 4.0 18:22:49 10° SSE 18:23:11 12° SSE 18:23:11 12° SSE
BREEZE-M DEB (TANK) 4.0 18:09:08 10° WSW 18:26:10 75° NNW 18:28:56 28° NE
Cosmos 1428 Rocket 4.4 18:21:39 10° S 18:27:48 70° E 18:33:57 10° NNE
YAOGAN 3 4.4 18:25:04 10° SSE 18:29:14 60° ENE 18:33:26 10° N
Cosmos 1943 Rocket 2.9 18:23:54 10° NNW 18:29:26 56° WSW 18:34:53 10° S
RESURS DK-1 3.2 18:26:11 10° NW 18:30:06 51° WSW 18:33:59 10° S
Cosmos 2237 Rocket 3.1 18:26:23 10° SW 18:31:53 49° WNW 18:37:24 10° NNE
NOAA 15 4.5 18:28:45 10° SSE 18:33:58 82° ENE 18:39:13 10° NNW
BlueWalker 3 3.0 18:31:02 10° NW 18:33:53 27° N 18:33:53 27° N
CZ-4B R/B 3.8 18:33:28 10° S 18:37:05 71° WSW 18:40:39 10° NNW
ISS -2.4 18:35:40 10° W 18:38:39 29° NNW 18:39:01 29° N
NOAA 6 4.1 18:33:50 10° S 18:38:55 79° WSW 18:44:04 10° NNW
COSMO-SKYMED 1 3.6 18:35:02 10° N 18:39:11 45° WNW 18:43:18 10° SW
Cosmos 2278 Rocket 4.0 18:38:41 10° NW 18:43:40 33° WSW 18:48:37 10° SSW
YAOGAN 1 2.8 18:43:25 10° S 18:47:39 68° WSW 18:51:56 10° NNW
CZ-4C R/B 2.6 18:45:59 10° WSW 18:50:12 46° NW 18:53:04 23° NNE
YAOGAN 11 4.0 18:51:31 35° N 18:53:18 85° WNW 18:57:34 10° SSW
ATLAS 5 CENTAUR R/B 1.5 18:51:48 10° SW 18:54:38 49° WNW 18:54:38 49° WNW
Cosmos 2195 Rocket 4.5 18:49:42 10° S 18:55:55 83° W 19:02:06 10° N
Meteor 1-24 Rocket 3.8 18:50:14 10° S 18:55:59 57° E 18:58:08 37° NE
SPOT 1/Viking Rocket 3.4 18:53:43 10° SSE 18:58:53 88° WSW 19:04:04 10° NNW
Cosmos 1703 Rocket 3.9 18:54:41 10° SSW 18:59:05 64° W 19:02:12 19° N
Resurs 1-3 3.6 18:59:07 10° S 19:03:26 77° W 19:07:46 10° NNW
Meteor 2-5 Rocket 3.6 19:00:55 10° S 19:06:34 67° E 19:07:38 55° NE
Cosmos 1656 Rocket 3.5 19:08:31 10° NNW 19:14:02 86° ENE 19:14:50 67° SSE
Cosmos 1814 Rocket 4.0 19:15:32 10° SSW 19:20:11 70° S 19:20:11 70° S
SL-16 R/B 2.5 19:15:25 10° SW 19:21:01 65° WNW 19:22:50 42° N
Cosmos 1553 Rocket 4.5 19:19:44 10° N 19:23:51 44° N 19:23:51 44° N
Cosmos 1818 4.1 19:31:13 10° NW 19:36:33 55° WSW 19:37:01 53° SW
ACS3 Solar Sail 3.6 19:33:04 10° SSW 19:38:33 30° W 19:44:06 10° NNW
Cosmos 2369 Rocket 2.9 19:35:00 10° NNW 19:38:45 44° NNW 19:38:45 44° NNW
ATLAS 2AS CENTAUR R/B 2.9 19:38:50 10° NW 19:45:30 65° WSW 19:46:35 57° SSW
Cosmos 839 Rocket 4.3 19:45:52 10° SW 19:52:24 61° NW 19:52:33 61° NW
